Regional Weather Roundup
Issued by NWS

Home | Current Version | Previous Version | Text Only | Print | Product List | Glossary On
Versions: 1 2 3 4 5 6 7 8 9 10 11 12 13 14 15 16 17 18 19 20 21 22 23 24 25 26 27 28 29 30 31 32 33 34 35 36 37 38 39 40 41 42 43 44 45 46 47 48 49 50
891
ASUS44 KJAN 230710
RWRMS

MISSISSIPPI HOURLY WEATHER ROUNDUP
NATIONAL WEATHER SERVICE JACKSON MS
100 AM CST SUN NOV 23 2014

NOTE: "FAIR: INDICATES FEW OR NO CLOUDS BELOW 12,000 FEET WITH NO
SIGNIFICANT WEATHER AND/OR OBSTRUCTIONS TO VISIBILITY.

MSZ001>002-007>008-010>013-018>021-025>028-034>036-230800-
NORTHWEST MISSISSIPPI

CITY           SKY/WX    TMP DP  RH WIND       PRES   REMARKS
CLARKSDALE     FAIR      55  52  88 E10       29.88F
CLEVELAND      FAIR      57  54  89 SE9       29.85F
GREENWOOD      CLOUDY    59  54  83 SE7       29.88F
GREENVILLE     MOCLDY    57  52  83 SE9       29.86F
GRENADA        CLOUDY    57  52  82 E7        29.91F
OLIVE BRANCH   CLEAR     55  55 100 SE14      29.91F
OXFORD         CLOUDY    57  50  77 SE9       29.94F
TUNICA         PTSUNNY   57  52  82 SE12      29.89F
$$

MSZ003>006-009-014>017-022>024-029>033-037>039-230800-
NORTHEAST MISSISSIPPI

CITY           SKY/WX    TMP DP  RH WIND       PRES   REMARKS
COLUMBUS AFB   CLOUDY    59  55  86 SE10      29.96F
CORINTH        CLOUDY    61  50  67 SE9       29.95F
GOLDN TRIANGLE CLOUDY    59  54  82 SE14G20   29.95F
STARKVILLE     CLOUDY    57  54  88 SE12G18   29.95F
TUPELO         CLOUDY    61  53  75 MISG      29.96F
$$

MSZ040-058-230800-
CENTRAL MISSISSIPPI

CITY           SKY/WX    TMP DP  RH WIND       PRES   REMARKS
JACKSON INTL   CLOUDY    62  57  83 SE9       29.91F
JACKSON HAWKNS CLOUDY    61  56  83 SE13      29.91S
MERIDIAN KEY   CLOUDY    59  57  93 E5        29.94F
MERIDIAN NAS   CLOUDY    58  56  93 E10       29.96F FOG
RAYMOND        CLOUDY    63  57  82 SE9       29.88F
VICKSBURG      CLOUDY    62  57  83 SE18      29.84F
$$

MSZ059>079-230800-
SOUTH MISSISSIPPI

CITY           SKY/WX    TMP DP  RH WIND       PRES   REMARKS
BROOKHAVEN     CLOUDY    61  59  94 E9        29.89F
HATTIESBURG    CLOUDY    62  58  86 E8        29.92F
MCCOMB         CLOUDY    61  59  93 SE8       29.87F
NATCHEZ        CLOUDY    63  57  82 SE14      29.84F
PINE BELT      CLOUDY    61  55  82 E9        29.91F
$$

MSZ080>082-230800-
COASTAL MISSISSIPPI

CITY           SKY/WX    TMP DP  RH WIND       PRES   REMARKS
BILOXI         CLOUDY    62  61  96 E9        29.87F
PASCAGOULA     CLOUDY    62  60  93 E8        29.88F
GULFPORT       CLOUDY    63  60  90 NE5       29.88F
$$



USA.gov is the U.S. government's official web portal to all federal, state and local government web resources and services.